• Em Portugal
  • Lista de países
  • Para 7 dias
  • Temperatura da água
  • Mapas de satélite
  • Mapa do tempo
  • Widgets de tempo
  • user-avatar
    Iniciar Sessão

    Previsão horária em Agerovo

    Hoje, 19 Agosto, Domingo

    Tempo Temperatura Precipitação Vento Pressão Humidade
    00:00 +17°C° 0 mm 2 m/s 756 mmHg 95%
    01:00 +17°C° 0 mm 2 m/s 756 mmHg 96%
    02:00 +18°C° 0 mm 1 m/s 756 mmHg 97%
    03:00 +18°C° 0,1 mm 1 m/s 755 mmHg 97%
    04:00 +16°C° 0,1 mm 1 m/s 755 mmHg 97%
    05:00 +16°C° 0,1 mm 2 m/s 755 mmHg 97%
    06:00 +18°C° 0 mm 2 m/s 755 mmHg 95%
    07:00 +19°C° 0 mm 2 m/s 755 mmHg 92%
    08:00 +20°C° 0 mm 2 m/s 755 mmHg 89%
    09:00 +21°C° 0,1 mm 3 m/s 755 mmHg 82%
    10:00 +24°C° 0,1 mm 3 m/s 755 mmHg 75%
    11:00 +25°C° 0,1 mm 4 m/s 754 mmHg 68%
    12:00 +25°C° 0,1 mm 4 m/s 754 mmHg 62%
    13:00 +26°C° 0,1 mm 4 m/s 754 mmHg 56%
    14:00 +26°C° 0,1 mm 4 m/s 754 mmHg 50%
    15:00 +25°C° 0 mm 4 m/s 754 mmHg 53%
    16:00 +25°C° 0 mm 3 m/s 754 mmHg 57%
    17:00 +24°C° 0 mm 3 m/s 754 mmHg 60%
    18:00 +21°C° 0 mm 3 m/s 754 mmHg 68%
    19:00 +20°C° 0 mm 2 m/s 754 mmHg 75%
    20:00 +19°C° 0 mm 2 m/s 754 mmHg 83%
    21:00 +18°C° 0 mm 2 m/s 754 mmHg 87%
    22:00 +18°C° 0 mm 2 m/s 754 mmHg 91%
    23:00 +17°C° 0 mm 2 m/s 754 mmHg 95%

    Amanhã, 20 Agosto, Segunda-feira

    Tempo Temperatura Precipitação Vento Pressão Humidade
    00:00 +17°C° 0 mm 2 m/s 754 mmHg 96%
    01:00 +17°C° 0 mm 2 m/s 754 mmHg 97%
    02:00 +16°C° 0 mm 2 m/s 754 mmHg 98%
    03:00 +16°C° 0 mm 2 m/s 754 mmHg 98%
    04:00 +16°C° 0 mm 2 m/s 754 mmHg 98%
    05:00 +16°C° 0 mm 2 m/s 754 mmHg 98%
    06:00 +17°C° 0,1 mm 2 m/s 753 mmHg 95%
    07:00 +18°C° 0,1 mm 3 m/s 753 mmHg 92%
    08:00 +19°C° 0,1 mm 3 m/s 753 mmHg 89%
    09:00 +20°C° 0 mm 3 m/s 753 mmHg 83%
    10:00 +21°C° 0 mm 4 m/s 752 mmHg 77%
    11:00 +22°C° 0 mm 4 m/s 752 mmHg 71%
    12:00 +23°C° 0 mm 4 m/s 752 mmHg 68%
    13:00 +23°C° 0 mm 4 m/s 751 mmHg 64%
    14:00 +25°C° 0 mm 5 m/s 751 mmHg 61%
    15:00 +25°C° 0,2 mm 4 m/s 750 mmHg 65%
    16:00 +25°C° 0,2 mm 4 m/s 749 mmHg 68%
    17:00 +25°C° 0,2 mm 3 m/s 749 mmHg 72%
    18:00 +22°C° 0,6 mm 3 m/s 748 mmHg 78%
    19:00 +21°C° 0,6 mm 3 m/s 748 mmHg 85%
    20:00 +19°C° 0,6 mm 4 m/s 747 mmHg 91%
    21:00 +19°C° 0,3 mm 4 m/s 747 mmHg 91%
    22:00 +19°C° 0,3 mm 4 m/s 746 mmHg 92%
    23:00 +19°C° 0,3 mm 4 m/s 746 mmHg 92%

    Depois de amanhã, 21 Agosto, Terça-feira

    Tempo Temperatura Precipitação Vento Pressão Humidade
    00:00 +18°C° 0,3 mm 4 m/s 746 mmHg 93%
    01:00 +18°C° 0,3 mm 4 m/s 745 mmHg 93%
    02:00 +17°C° 0,3 mm 5 m/s 745 mmHg 93%
    03:00 +17°C° 0,3 mm 5 m/s 745 mmHg 93%
    04:00 +16°C° 0,3 mm 5 m/s 745 mmHg 94%
    05:00 +17°C° 0,3 mm 4 m/s 745 mmHg 94%
    06:00 +16°C° 0,1 mm 5 m/s 746 mmHg 92%
    07:00 +16°C° 0,1 mm 5 m/s 746 mmHg 90%
    08:00 +16°C° 0,1 mm 5 m/s 747 mmHg 87%
    09:00 +16°C° 0,1 mm 5 m/s 747 mmHg 80%
    10:00 +16°C° 0,1 mm 6 m/s 748 mmHg 73%
    11:00 +17°C° 0,1 mm 6 m/s 748 mmHg 66%
    12:00 +19°C° 0 mm 6 m/s 749 mmHg 59%
    13:00 +20°C° 0 mm 6 m/s 749 mmHg 53%
    14:00 +21°C° 0 mm 6 m/s 750 mmHg 46%
    15:00 +20°C° 0,1 mm 6 m/s 750 mmHg 49%
    16:00 +20°C° 0,1 mm 5 m/s 750 mmHg 52%
    17:00 +19°C° 0,1 mm 5 m/s 751 mmHg 55%
    18:00 +17°C° 0 mm 4 m/s 751 mmHg 62%
    19:00 +16°C° 0 mm 3 m/s 752 mmHg 68%
    20:00 +13°C° 0 mm 3 m/s 752 mmHg 75%
    21:00 +12°C° 0 mm 3 m/s 753 mmHg 75%
    22:00 +12°C° 0 mm 3 m/s 753 mmHg 76%
    23:00 +11°C° 0 mm 3 m/s 754 mmHg 76%

    22 Agosto, Quarta-feira

    Tempo Temperatura Precipitação Vento Pressão Humidade
    00:00 +11°C° 0 mm 3 m/s 754 mmHg 77%
    01:00 +11°C° 0 mm 3 m/s 755 mmHg 77%
    02:00 +11°C° 0 mm 3 m/s 755 mmHg 78%
    03:00 +10°C° 0 mm 3 m/s 756 mmHg 78%
    04:00 +10°C° 0 mm 3 m/s 756 mmHg 79%
    05:00 +9°C° 0 mm 3 m/s 756 mmHg 80%
    06:00 +11°C° 0 mm 3 m/s 757 mmHg 74%
    07:00 +12°C° 0 mm 4 m/s 757 mmHg 67%
    08:00 +13°C° 0 mm 4 m/s 758 mmHg 61%
    09:00 +15°C° 0 mm 4 m/s 758 mmHg 56%
    10:00 +17°C° 0 mm 4 m/s 758 mmHg 51%
    11:00 +18°C° 0 mm 4 m/s 758 mmHg 46%
    12:00 +18°C° 0 mm 4 m/s 758 mmHg 45%
    13:00 +19°C° 0 mm 3 m/s 758 mmHg 44%
    14:00 +19°C° 0 mm 3 m/s 758 mmHg 42%
    15:00 +19°C° 0 mm 3 m/s 758 mmHg 44%
    16:00 +19°C° 0 mm 3 m/s 758 mmHg 46%
    17:00 +19°C° 0 mm 2 m/s 758 mmHg 48%
    18:00 +17°C° 0 mm 2 m/s 758 mmHg 56%
    19:00 +15°C° 0 mm 2 m/s 758 mmHg 63%
    20:00 +13°C° 0 mm 1 m/s 759 mmHg 71%
    21:00 +13°C° 0 mm 2 m/s 759 mmHg 73%
    22:00 +13°C° 0 mm 2 m/s 759 mmHg 75%
    23:00 +13°C° 0 mm 2 m/s 759 mmHg 77%

    23 Agosto, Quinta-feira

    Tempo Temperatura Precipitação Vento Pressão Humidade
    00:00 +12°C° 0 mm 3 m/s 758 mmHg 77%
    01:00 +12°C° 0 mm 3 m/s 758 mmHg 78%
    02:00 +12°C° 0 mm 3 m/s 758 mmHg 78%
    03:00 +12°C° 0 mm 3 m/s 758 mmHg 77%
    04:00 +12°C° 0 mm 3 m/s 758 mmHg 76%
    05:00 +12°C° 0 mm 4 m/s 758 mmHg 75%
    06:00 +13°C° 0 mm 4 m/s 757 mmHg 71%
    07:00 +15°C° 0 mm 4 m/s 757 mmHg 66%
    08:00 +16°C° 0 mm 5 m/s 757 mmHg 62%
    09:00 +19°C° 0 mm 5 m/s 757 mmHg 58%
    10:00 +20°C° 0 mm 5 m/s 757 mmHg 54%
    11:00 +22°C° 0 mm 5 m/s 756 mmHg 50%
    12:00 +23°C° 0 mm 5 m/s 756 mmHg 49%
    13:00 +23°C° 0 mm 5 m/s 756 mmHg 47%
    14:00 +25°C° 0 mm 5 m/s 755 mmHg 46%
    15:00 +25°C° 0 mm 4 m/s 755 mmHg 49%
    16:00 +25°C° 0 mm 4 m/s 755 mmHg 52%
    17:00 +24°C° 0 mm 3 m/s 755 mmHg 56%
    18:00 +22°C° 0 mm 3 m/s 755 mmHg 62%
    19:00 +20°C° 0 mm 3 m/s 755 mmHg 69%
    20:00 +18°C° 0 mm 3 m/s 755 mmHg 76%
    21:00 +17°C° 0 mm 3 m/s 755 mmHg 77%
    22:00 +17°C° 0 mm 3 m/s 755 mmHg 79%
    23:00 +17°C° 0 mm 3 m/s 755 mmHg 80%

    24 Agosto, Sexta-feira

    Tempo Temperatura Precipitação Vento Pressão Humidade
    00:00 +16°C° 0 mm 3 m/s 755 mmHg 82%
    01:00 +16°C° 0 mm 2 m/s 755 mmHg 85%
    02:00 +15°C° 0 mm 2 m/s 755 mmHg 87%
    03:00 +15°C° 0 mm 2 m/s 755 mmHg 88%
    04:00 +14°C° 0 mm 2 m/s 755 mmHg 89%
    05:00 +14°C° 0 mm 2 m/s 755 mmHg 90%
    06:00 +15°C° 0 mm 2 m/s 755 mmHg 83%
    07:00 +17°C° 0 mm 3 m/s 755 mmHg 77%
    08:00 +19°C° 0 mm 3 m/s 755 mmHg 70%
    09:00 +20°C° 0 mm 3 m/s 754 mmHg 63%
    10:00 +22°C° 0 mm 4 m/s 754 mmHg 57%
    11:00 +25°C° 0 mm 4 m/s 754 mmHg 50%
    12:00 +26°C° 0 mm 4 m/s 754 mmHg 49%
    13:00 +26°C° 0 mm 4 m/s 753 mmHg 47%
    14:00 +27°C° 0 mm 4 m/s 753 mmHg 46%
    15:00 +26°C° 0 mm 4 m/s 753 mmHg 49%
    16:00 +26°C° 0 mm 3 m/s 753 mmHg 51%
    17:00 +25°C° 0 mm 3 m/s 752 mmHg 54%
    18:00 +22°C° 0 mm 3 m/s 752 mmHg 59%
    19:00 +21°C° 0 mm 3 m/s 752 mmHg 63%
    20:00 +19°C° 0 mm 3 m/s 752 mmHg 68%
    21:00 +19°C° 0 mm 3 m/s 752 mmHg 69%
    22:00 +18°C° 0 mm 3 m/s 752 mmHg 70%
    23:00 +17°C° 0 mm 4 m/s 752 mmHg 72%
    Mostrar mais